[[{"header":{"parameterUnit":"m.s-1","parameterCategory":1,"la1":30.2991,"la2":30.254,"lo1":-89.0895,"lo2":-89.0444,"dy":0.0017,"dx":0.0017,"nx":28,"ny":28,"refTime":"2025-07-05T03:00:00:Z","depth":0,"parameterNumber":2,"parameterNumberName":"U-component_of_WINDS"},"data":[0,0,0,0,0,0,0,0,0,0,0,0,0,0,0,0,0,0,0,0,0,0,0,0,0,0,0,0,0,0,0,0,0,0,0,0,0,0,0,0,0,0,0,0,0,0,0,0,0,0,0,0,0,0,0,0,0,0,0.105,0.1049,0,0.1009,0.1008,0.1008,0.1019,0.1019,0.102,0.1021,0.0977,0.0975,0.0973,0,0,0,0,0,0,0,0,0,0,0,0,0,0.1136,0.1135,0.105,0.1049,0.1049,0.1009,0.1008,0.1008,0.1019,0.102,0.1021,0.1021,0.0977,0.0975,0.0973,0,0,0,0,0,0,0,0,0,0,0,0,0,0.1097,0.1134,0.105,0.1049,0.1049,0.1009,0.1008,0.1008,0.1018,0.102,0.1021,0.1022,0.0978,0.0975,0.0972,0.093,0,0,0.0963,0.0962,0,0,0,0,0,0,0,0,0.1099,0.1094,0.105,0.1049,0.1049,0.102,0.1022,0.0981,0.1018,0.103,0.1021,0.1023,0.099,0.0986,0.0976,0.0927,0.0926,0.0963,0.0961,0.096,0.0959,0,0,0,0,0,0,0,0.1102,0.1096,0.1034,0.1049,0.1049,0.1051,0.1047,0.1015,0.1003,0.1029,0.103,0.1025,0.099,0.0978,0.0975,0.0925,0.0963,0.0961,0.0959,0.0958,0.084,0.0839,0,0,0,0,0,0,0.1106,0.1098,0.1035,0.1032,0.1078,0.1048,0.1044,0.1028,0.1004,0.1001,0.1024,0.1025,0.0983,0.0978,0.0973,0.0921,0.096,0.0957,0.0956,0.0842,0.084,0.0838,0,0,0,0,0,0,0.1107,0.11,0.1036,0.1065,0.1058,0.1046,0.1028,0.1027,0.1015,0.1,0.0998,0.1014,0.0984,0.0977,0.0941,0.092,0.0956,0.0953,0.0843,0.0841,0.0839,0.0818,0,0,0,0,0,0,0.111,0.11,0.1084,0.1065,0.1056,0.1005,0.1027,0.1025,0.101,0.1012,0.099,0.0988,0.0984,0.0945,0.0938,0.0917,0.0951,0.0845,0.0842,0.084,0.082,0.0815,0.0811,0,0,0,0,0,0.1113,0.1079,0.1083,0.1076,0.1035,0.1004,0.0998,0.0995,0.1009,0.0992,0.0983,0.0989,0.0924,0.0941,0.0933,0.0911,0.0846,0.0843,0.084,0.0822,0.0816,0.0811,0,0,0,0,0,0,0.1095,0.1076,0.1081,0.104,0.1024,0.1006,0.0984,0.0989,0.0967,0.097,0.0967,0.0961,0.0924,0.0914,0.0933,0.0869,0.0887,0.0882,0.0876,0.087,0.0866,0.0868,0.0949,0,0,0,0,0,0.1087,0.1063,0.1048,0.1013,0.1005,0.0996,0.0982,0.0981,0.0964,0.0956,0.0944,0.0926,0.0902,0.0886,0.0862,0.0819,0.0815,0.08,0.0796,0.0792,0.0787,0.0764,0.0757,0.0828,0.0828,0.0828,0,0,0.1068,0.1055,0.104,0.1009,0.0996,0.0971,0.099,0.0963,0.0944,0.0952,0.0917,0.0907,0.0887,0.0847,0.0829,0.0837,0.0767,0.0788,0.0785,0.0782,0.076,0.0753,0.0747,0.0826,0.0827,0.0827,0,0,0.1022,0.101,0.098,0.0967,0.0948,0.0943,0.0936,0.0917,0.0911,0.0876,0.0882,0.086,0.0818,0.0803,0.0791,0.0741,0.0746,0.0733,0.0709,0.0686,0.068,0.0675,0.0657,0.0651,0.0729,0.0729,0.0729,0,0.1001,0.0965,0.0964,0.0936,0.0922,0.093,0.09,0.0887,0.0861,0.0851,0.0861,0.081,0.0797,0.0753,0.0741,0.0731,0.0722,0.0735,0.0681,0.0676,0.0672,0.0654,0.0647,0.0728,0.0728,0.0728,0.0728,0,0.094,0.0915,0.0893,0.0868,0.0852,0.0823,0.0818,0.0801,0.0803,0.0796,0.0761,0.0746,0.072,0.071,0.071,0.0667,0.0673,0.0682,0.0701,0.0663,0.0647,0.064,0.0726,0.0726,0.0727,0.0727,0,0,0.0879,0.0856,0.0848,0.0837,0.0818,0.0797,0.0769,0.0745,0.0731,0.0713,0.0689,0.0654,0.0663,0.0649,0.0648,0.0628,0.0589,0.064,0.064,0.0631,0.054,0.0532,0.0525,0.0593,0.0592,0.0591,0.0542,0,0.0831,0.0782,0.0781,0.0735,0.0711,0.0719,0.0695,0.068,0.0673,0.0652,0.0645,0.062,0.0635,0.0626,0.0607,0.0598,0.0571,0.0602,0.057,0.0569,0.0573,0.0516,0.0507,0.0462,0.0535,0.0534,0.0534,0,0.0767,0.0748,0.0701,0.0685,0.0675,0.0653,0.0631,0.0611,0.0594,0.0591,0.0576,0.0578,0.0549,0.057,0.0529,0.055,0.0537,0.0531,0.0529,0.0525,0.0548,0.0509,0.0447,0.044,0.0524,0.0524,0.0525,0,0.0727,0.069,0.0657,0.0647,0.0628,0.0612,0.0604,0.0588,0.0574,0.0555,0.0546,0.0523,0.051,0.0493,0.0489,0.0505,0.0449,0.0469,0.0445,0.0445,0.0431,0.0432,0.0365,0.0425,0.0425,0.0425,0.0425,0,0.0672,0.0642,0.0638,0.0618,0.0585,0.0585,0.0552,0.0544,0.0531,0.0509,0.0515,0.0494,0.0491,0.0469,0.0466,0.0433,0.0428,0.0424,0.0423,0.0422,0.0423,0.0413,0.0416,0.0423,0.0424,0.0424,0.0424,0,0.0621,0.0617,0.0581,0.0567,0.0563,0.0539,0.0526,0.0507,0.0502,0.0474,0.0467,0.0459,0.0434,0.0429,0.0399,0.0398,0.0358,0.0361,0.0364,0.0363,0.0339,0.0341,0.0262,0.0252,0.032,0.0319,0.0319,0,0.0586,0.0563,0.0547,0.0533,0.0524,0.0501,0.0487,0.0486,0.0471,0.0451,0.0434,0.0409,0.039,0.0349,0.034,0.0318,0.032,0.0294,0.0316,0.0317,0.0318,0.0319,0.0317,0.0289,0.0288,0.0288,0.0287,0,0.0523,0.0523,0.0502,0.0482,0.0465,0.0448,0.0432,0.0421,0.0418,0.0401,0.0376,0.0361,0.0331,0.0307,0.0284,0.0275,0.028,0.0281,0.0274,0.0272,0.0274,0.0272,0.0351,0.0282,0.0282,0.0283,0.0283,0.0283,0.0478,0.0459,0.0444,0.0422,0.041,0.0396,0.0377,0.037,0.0349,0.0325,0.0326,0.0299,0.0284,0.0254,0.0244,0.0222,0.023,0.022,0.0218,0.0215,0.0212,0.0279,0.0218,0.0218,0.0218,0.0219,0.0219,0,0.0415,0.0407,0.0386,0.0365,0.0347,0.0355,0.0339,0.0323,0.0299,0.0284,0.0266,0.0237,0.0214,0.0204,0.0181,0.0166,0.0168,0.016,0.016,0.0158,0.0207,0.0214,0.0159,0.0159,0.0159,0.0159,0.0159,0.0159,0.038,0.0348,0.0346,0.0308,0.03,0.0273,0.0263,0.025,0.0238,0.0207,0.0188,0.0182,0.0169,0.0146,0.0125,0.0123,0.0114,0.0105,0.0103,0.0149,0.0155,0.016,0.0168,0.0103,0.0103,0.0057,0.0056,0.0056]},{"header":{"parameterUnit":"m.s-1","parameterCategory":1,"la1":30.2991,"la2":30.254,"lo1":-89.0895,"lo2":-89.0444,"dy":0.0017,"dx":0.0017,"nx":28,"ny":28,"refTime":"2025-07-05T03:00:00:Z","depth":0,"parameterNumber":3,"parameterNumberName":"V-component_of_WINDS"},"data":[0,0,0,0,0,0,0,0,0,0,0,0,0,0,0,0,0,0,0,0,0,0,0,0,0,0,0,0,0,0,0,0,0,0,0,0,0,0,0,0,0,0,0,0,0,0,0,0,0,0,0,0,0,0,0,0,0,0,-3.0679,-3.068,0,-3.0807,-3.0809,-3.081,-3.0791,-3.0789,-3.0787,-3.0785,-3.0915,-3.092,-3.0926,0,0,0,0,0,0,0,0,0,0,0,0,0,-3.0416,-3.0421,-3.0678,-3.068,-3.0682,-3.0807,-3.0809,-3.081,-3.0792,-3.0789,-3.0787,-3.0784,-3.0913,-3.092,-3.0926,0,0,0,0,0,0,0,0,0,0,0,0,0,-3.0536,-3.0422,-3.0678,-3.0687,-3.069,-3.0807,-3.0809,-3.0811,-3.0792,-3.0789,-3.0786,-3.0783,-3.0911,-3.0919,-3.0927,-3.1042,0,0,-3.0952,-3.0956,0,0,0,0,0,0,0,0,-3.0529,-3.0545,-3.0684,-3.0687,-3.069,-3.078,-3.0764,-3.0888,-3.0793,-3.0753,-3.0785,-3.0781,-3.0873,-3.0884,-3.0915,-3.1049,-3.1054,-3.0953,-3.0958,-3.0962,-3.0964,0,0,0,0,0,0,0,-3.0521,-3.054,-3.0729,-3.0687,-3.069,-3.0685,-3.0698,-3.0787,-3.0829,-3.0756,-3.0755,-3.0771,-3.0873,-3.0907,-3.0918,-3.1056,-3.0953,-3.096,-3.0965,-3.0968,-3.1292,-3.1296,0,0,0,0,0,0,-3.051,-3.0533,-3.0725,-3.0733,-3.06,-3.0692,-3.0707,-3.0754,-3.0828,-3.0837,-3.0774,-3.077,-3.0895,-3.0908,-3.0922,-3.1063,-3.0961,-3.0969,-3.0974,-3.1288,-3.1293,-3.1297,0,0,0,0,0,0,-3.0504,-3.0527,-3.072,-3.0633,-3.0657,-3.07,-3.0753,-3.0758,-3.0792,-3.0841,-3.0849,-3.08,-3.0893,-3.0911,-3.1013,-3.1067,-3.0973,-3.098,-3.1284,-3.129,-3.1295,-3.1345,0,0,0,0,0,0,-3.0497,-3.0525,-3.057,-3.0634,-3.0662,-3.0809,-3.0756,-3.0763,-3.0807,-3.0803,-3.0868,-3.0876,-3.0892,-3.1001,-3.1021,-3.1077,-3.0987,-3.1279,-3.1287,-3.1293,-3.1339,-3.1352,-3.1363,0,0,0,0,0,-3.0488,-3.0578,-3.0572,-3.0595,-3.0718,-3.0812,-3.0828,-3.0844,-3.0811,-3.0856,-3.0888,-3.0874,-3.1058,-3.1012,-3.1034,-3.1093,-3.1276,-3.1285,-3.1293,-3.1334,-3.1349,-3.1363,0,0,0,0,0,0,-3.0518,-3.0587,-3.0581,-3.0695,-3.0748,-3.0809,-3.0866,-3.086,-3.0923,-3.0917,-3.0934,-3.0949,-3.1053,-3.1083,-3.103,-3.121,-3.1163,-3.1176,-3.1186,-3.1201,-3.1213,-3.1204,-3.0994,0,0,0,0,0,-3.0538,-3.061,-3.0665,-3.076,-3.0788,-3.0822,-3.0864,-3.0872,-3.0927,-3.095,-3.0989,-3.1043,-3.1113,-3.1159,-3.1226,-3.1343,-3.1358,-3.1395,-3.1407,-3.1417,-3.1428,-3.1494,-3.1511,-3.1324,-3.1324,-3.1324,0,0,-3.0581,-3.0627,-3.067,-3.0768,-3.081,-3.0883,-3.0841,-3.092,-3.0975,-3.0961,-3.1061,-3.1092,-3.1153,-3.1264,-3.1315,-3.1292,-3.1483,-3.1427,-3.1434,-3.1441,-3.1504,-3.1521,-3.1537,-3.133,-3.1329,-3.1328,0,0,-3.0695,-3.0737,-3.0821,-3.0865,-3.093,-3.0952,-3.0973,-3.1035,-3.1055,-3.1156,-3.1148,-3.1212,-3.1332,-3.1377,-3.1415,-3.1548,-3.1538,-3.1569,-3.1632,-3.1696,-3.171,-3.1724,-3.1772,-3.1789,-3.158,-3.1581,-3.1581,0,-3.0739,-3.0849,-3.0865,-3.0946,-3.0989,-3.0982,-3.1068,-3.1109,-3.1192,-3.1222,-3.1196,-3.1348,-3.1388,-3.151,-3.1543,-3.1574,-3.1598,-3.1562,-3.1707,-3.172,-3.1733,-3.1779,-3.1797,-3.1584,-3.1584,-3.1583,-3.1583,0,-3.0901,-3.0978,-3.1038,-3.112,-3.117,-3.1253,-3.1281,-3.133,-3.1334,-3.136,-3.1462,-3.1511,-3.1589,-3.1618,-3.1622,-3.1741,-3.1725,-3.1703,-3.1656,-3.1754,-3.1798,-3.1816,-3.1589,-3.1588,-3.1587,-3.1586,0,0,-3.1038,-3.1128,-3.115,-3.1188,-3.1259,-3.1319,-3.1401,-3.1478,-3.152,-3.1578,-3.1648,-3.175,-3.1731,-3.1774,-3.1783,-3.1839,-3.1943,-3.181,-3.1812,-3.1834,-3.2078,-3.2095,-3.2115,-3.1936,-3.194,-3.1943,-3.2073,0,-3.116,-3.1307,-3.1324,-3.1455,-3.1526,-3.152,-3.1593,-3.1644,-3.167,-3.1735,-3.1763,-3.1836,-3.1804,-3.1831,-3.1886,-3.1918,-3.1992,-3.1909,-3.2002,-3.2005,-3.1988,-3.2138,-3.2155,-3.2276,-3.209,-3.2093,-3.2095,0,-3.1322,-3.1385,-3.1523,-3.1586,-3.1617,-3.1681,-3.1754,-3.1815,-3.1874,-3.1889,-3.1939,-3.1941,-3.2026,-3.1976,-3.2094,-3.2038,-3.2077,-3.2099,-3.2104,-3.2113,-3.2056,-3.2152,-3.2315,-3.2333,-3.2122,-3.212,-3.2118,0,-3.1409,-3.1529,-3.1628,-3.166,-3.1735,-3.1781,-3.1814,-3.187,-3.1915,-3.1978,-3.2008,-3.208,-3.2119,-3.2175,-3.2196,-3.2157,-3.2314,-3.2265,-3.2329,-3.2329,-3.2363,-3.2361,-3.2535,-3.2387,-3.2387,-3.2386,-3.2386,0,-3.1544,-3.1629,-3.1668,-3.1729,-3.1824,-3.1843,-3.1937,-3.1968,-3.2018,-3.2085,-3.2083,-3.2146,-3.217,-3.2237,-3.2254,-3.235,-3.2368,-3.2383,-3.2387,-3.2384,-3.2382,-3.241,-3.2402,-3.2391,-3.239,-3.2389,-3.2388,0,-3.1657,-3.1687,-3.1794,-3.1857,-3.1875,-3.1943,-3.1997,-3.2056,-3.2081,-3.2166,-3.2187,-3.2227,-3.2306,-3.2333,-3.2427,-3.2439,-3.2551,-3.2547,-3.2532,-3.2533,-3.2596,-3.259,-3.2795,-3.2823,-3.2656,-3.2657,-3.2659,0,-3.1742,-3.1807,-3.1878,-3.1923,-3.1959,-3.2031,-3.2078,-3.2099,-3.2148,-3.222,-3.227,-3.2349,-3.2412,-3.2538,-3.2576,-3.2648,-3.2647,-3.2714,-3.2658,-3.2653,-3.2649,-3.2645,-3.2652,-3.2724,-3.2726,-3.2727,-3.2728,0,-3.1889,-3.1901,-3.1968,-3.2042,-3.2098,-3.2157,-3.2213,-3.225,-3.228,-3.2335,-3.2416,-3.2465,-3.2563,-3.2641,-3.2716,-3.2749,-3.2745,-3.2746,-3.2765,-3.2763,-3.2751,-3.2759,-3.2561,-3.2741,-3.274,-3.2739,-3.2738,-3.2738,-3.1991,-3.205,-3.2109,-3.2185,-3.223,-3.2284,-3.2342,-3.2376,-3.2444,-3.2526,-3.2534,-3.2621,-3.2679,-3.2779,-3.2817,-3.2885,-3.2867,-3.2894,-3.2901,-3.2908,-3.2913,-3.274,-3.2899,-3.2899,-3.2898,-3.2898,-3.2898,0,-3.2139,-3.2177,-3.2247,-3.2327,-3.2387,-3.2378,-3.244,-3.2491,-3.2568,-3.2623,-3.2686,-3.2779,-3.2855,-3.2899,-3.2975,-3.3022,-3.3021,-3.3041,-3.3038,-3.3046,-3.2925,-3.2901,-3.304,-3.304,-3.304,-3.304,-3.304,-3.304,-3.2223,-3.2322,-3.2341,-3.2463,-3.25,-3.2586,-3.2623,-3.2672,-3.2716,-3.2821,-3.2884,-3.2913,-3.2964,-3.3044,-3.3113,-3.3124,-3.3152,-3.3174,-3.3183,-3.3069,-3.3054,-3.3041,-3.3019,-3.318,-3.318,-3.3299,-3.33,-3.3301]}]]